Wind_Speed
5 6 6 7 7 5 5 3 2 6 5 7 9 11 11 13 11 14 16 13 18 12 13 10 7 4 7 10 15 17 13 10 8 21 16 18 13 9 7 7 6 4 8
3 4 3 4 6 6 6 4 5 7 5 6 8 9 11 13 17 20 20 20 24 20 16 19 16 14 13 8 12 13 13 4 23 18 20 15 13 10 9 8 6 6 7
3 3 3 3 4 8 6 8 7 9 9 9 10 12 14 15 16 17 20 21 22 23 21 21 21 20 16 13 15 11 15 18 19 14 13 14 12 13 10 8 9 9 9
3 4 5 7 7 9 9 9 9 8 11 11 11 12 13 13 14 14 14 15 14 14 12 10 7 8 3 9 9 8 8 11 11 13 14 14 16 15 10 11 11 10 11
4 7 7 5 6 7 9 9 10 10 10 11 12 11 11 14 15 15 14 15 17 17 17 16 13 15 15 15 14 11 11 9 13 13 13 13 13 13 14 14 13 9 11
5 6 4 5 3 5 6 8 11 11 11 12 12 12 11 9 13 14 16 16 14 12 14 15 13 12 12 14 14 16 11 12 14 14 13 15 15 9 7 9 12 12 13
6 3 2 2 5 7 7 8 11 13 12 13 14 12 13 11 15 15 15 14 14 13 14 12 13 13 14 14 14 17 14 12 9 9 7 3 5 8 11 9 11 13 16
6 6 4 6 6 7 9 8 8 10 10 13 12 13 14 14 13 11 11 9 10 9 9 9 11 14 15 13 11 10 10 11 12 11 12 11 11 11 11 12 13 15 17
8 8 10 12 10 10 10 10 8 3 5 6 8 8 13 15 15 14 14 11 9 9 10 11 9 10 10 14 10 12 13 13 12 14 15 16 15 15 14 12 16 17 18
10 11 10 17 14 7 11 14 14 13 11 7 5 7 10 12 11 10 11 8 7 6 6 7 11 11 11 14 17 13 13 15 16 16 17 14 19 24 22 21 17 18 20
10 10 7 4 10 9 8 13 15 17 14 14 13 12 11 11 11 14 15 12 9 9 11 13 16 19 21 19 18 16 16 14 11 11 14 15 17 16 16 17 19 18 19
13 10 9 10 10 9 11 14 15 13 11 10 11 12 13 14 17 17 18 18 16 13 13 14 13 19 18 20 21 20 19 18 13 15 16 17 16 17 18 19 19 23 23
15 14 11 11 13 14 14 11 11 11 11 11 12 12 12 15 17 21 19 21 22 23 16 12 13 16 19 17 19 20 18 15 16 17 17 18 18 19 18 18 20 23 27
17 14 13 15 15 15 14 15 15 14 14 14 15 14 16 19 21 21 24 24 26 24 23 21 13 10 11 13 14 16 18 18 18 18 18 18 18 19 20 21 22 22 24
15 17 18 19 19 17 16 16 18 21 18 17 18 18 19 19 21 22 19 21 19 20 18 15 13 13 14 15 16 16 15 15 16 17 18 19 20 21 22 21 22 23 24
15 16 17 16 20 19 19 17 22 12 10 15 11 11 7 5 9 17 18 15 11 7 16 15 15 15 15 16 16 17 18 18 17 17 19 21 22 23 23 23 24 24 25
18 12 15 15 16 15 16 15 16 17 18 16 16 15 13 10 8 14 14 15 15 13 15 17 17 17 16 16 16 16 16 17 15 17 20 22 23 23 24 23 23 24 27
21 20 17 17 17 15 17 19 19 21 19 21 25 25 21 18 17 14 13 11 10 14 17 18 18 18 17 17 17 18 18 18 18 20 21 21 18 18 19 21 24 23 23
22 22 21 21 19 19 20 20 20 20 23 23 23 24 28 23 21 21 19 16 16 17 18 19 20 19 18 18 18 19 19 20 19 18 23 25 24 21 22 23 24 28 27
24 24 22 23 23 22 22 21 21 22 20 17 17 22 23 26 20 22 24 23 22 22 22 21 22 22 21 20 21 19 16 17 17 15 15 14 14 14 18 21 21 23 22
24 24 28 24 23 22 24 23 23 22 22 22 22 21 15 24 21 22 24 26 25 22 22 21 21 22 21 20 18 16 11 10 12 14 15 15 16 18 18 18 20 21 21
25 24 22 28 26 25 25 22 24 22 22 22 23 25 25 26 24 24 22 19 23 25 19 18 19 18 14 15 12 11 11 12 12 14 16 17 16 15 16 16 16 18 19
25 25 26 24 30 29 27 26 24 22 25 28 28 24 14 24 22 19 22 20 20 21 17 6 9 12 12 8 5 5 9 10 9 9 12 12 12 11 11 13 15 16 19
22 19 22 29 26 18 27 25 27 29 28 26 28 29 23 25 26 24 22 19 20 11 5 3 4 4 4 4 2 2 5 6 6 8 6 8 10 11 12 12 14 17 20
15 21 28 29 24 23 34 45 33 27 28 32 33 31 31 29 16 17 13 10 8 9 7 5 6 5 5 4 4 3 8 10 9 9 9 9 9 10 13 15 17 19 21
19 18 13 12 15 18 20 21 21 22 17 24 31 32 19 10 8 9 13 10 7 7 10 7 7 6 4 3 6 5 7 7 5 5 6 10 13 15 15 14 18 20 22
Wind_Direction
17 16 13 23 25 12 9 357 275 218 234 210 205 205 202 188 178 172 155 138 133 128 144 109 83 133 218 172 183 187 183 235 208 138 156 162 194 187 194 180 203 199 250
19 14 24 52 54 59 66 77 96 116 128 148 165 142 134 138 146 149 144 138 126 109 108 106 99 95 70 98 120 126 110 82 123 144 134 162 193 208 209 209 216 231 236
57 75 86 99 113 96 97 95 107 111 110 115 124 113 120 122 125 127 125 123 120 119 111 99 91 85 67 58 85 102 87 116 127 128 150 175 195 203 213 231 233 240 254
138 119 114 121 127 130 128 138 131 128 128 122 134 134 123 129 130 126 122 117 120 121 124 122 114 112 60 37 32 40 87 126 161 155 181 186 196 198 215 239 221 231 248
41 132 132 141 148 153 154 147 146 141 140 135 133 138 142 132 133 134 125 121 120 123 124 124 130 142 153 167 174 170 177 166 171 178 183 192 195 184 207 227 228 264 264
102 80 81 91 140 184 176 174 170 164 168 161 156 152 151 148 165 152 139 138 143 155 151 152 158 163 165 164 179 171 190 169 188 194 199 207 213 200 245 252 250 251 263
150 158 167 229 221 210 193 208 203 200 185 179 170 164 165 158 160 164 168 166 168 178 159 164 159 173 181 186 187 189 184 191 194 212 262 245 237 230 248 269 264 263 260
183 203 211 207 188 203 196 190 186 212 194 175 177 174 169 165 169 173 157 162 165 161 156 163 182 185 195 191 193 195 203 220 227 230 241 250 262 264 258 261 266 275 272
205 218 220 201 195 194 191 190 177 128 90 143 137 157 162 154 170 165 166 166 168 183 198 203 199 189 193 199 204 210 218 228 240 242 236 243 250 256 246 256 261 262 272
220 231 239 199 193 179 204 201 200 232 247 237 191 176 184 166 163 173 197 213 198 207 214 235 229 222 218 221 222 229 240 245 240 232 236 260 258 257 255 253 257 269 273
219 218 234 174 185 173 171 195 202 201 188 188 184 198 191 184 188 193 208 224 229 219 222 222 225 227 228 228 235 234 243 259 264 254 261 256 247 245 246 252 241 244 261
193 201 193 192 195 209 198 187 190 194 191 195 200 199 206 212 217 231 242 227 214 237 254 244 239 233 233 236 241 244 242 256 256 254 256 256 256 258 260 258 254 241 247
190 196 192 189 205 200 223 226 215 207 219 211 207 206 210 215 219 221 224 220 229 239 252 272 267 242 219 231 241 242 242 247 247 250 252 256 259 263 268 275 268 263 266
194 199 192 193 205 211 216 222 221 216 226 224 216 211 218 229 226 225 226 233 237 244 248 253 251 235 238 241 241 242 236 240 244 250 257 264 273 277 272 267 269 271 273
204 200 211 215 214 226 227 223 221 216 215 221 222 218 212 217 217 212 208 215 220 225 227 233 222 238 232 233 235 238 235 241 247 254 266 273 270 271 273 273 272 275 273
222 227 215 208 214 210 213 218 227 233 242 220 220 208 206 228 230 207 206 216 223 224 209 241 240 240 237 236 233 232 231 237 247 255 260 264 270 276 281 283 281 280 282
233 229 235 222 231 222 202 214 215 222 227 230 229 231 229 208 184 189 211 226 235 236 237 250 245 248 244 243 248 251 252 255 259 262 271 276 277 275 277 279 286 285 282
218 223 227 224 246 216 221 205 216 228 217 227 229 223 222 226 223 216 212 211 222 229 241 245 246 250 249 250 251 254 259 264 267 270 275 281 288 290 293 289 289 296 299
222 225 217 239 229 234 228 217 231 235 214 229 220 213 219 221 219 217 217 219 235 237 225 232 244 253 256 259 263 266 268 271 279 295 295 298 300 304 300 299 305 304 307
224 233 228 219 221 231 233 236 231 230 228 240 238 197 200 205 203 206 212 218 232 246 256 253 243 242 249 255 260 265 280 286 289 307 315 313 305 302 296 302 305 304 301
223 222 223 235 241 232 225 229 234 236 231 235 232 238 215 187 203 217 219 219 223 232 234 246 257 258 257 264 276 285 285 294 293 296 297 298 296 300 300 294 291 289 290
225 229 212 215 231 237 235 237 230 240 262 252 242 243 216 205 227 236 241 244 228 233 245 249 251 256 275 292 311 316 303 305 308 302 292 293 297 297 294 293 293 292 291
223 220 237 229 222 238 240 227 229 239 226 237 253 258 220 218 228 245 263 243 247 254 255 249 265 268 285 319 317 307 299 296 292 293 293 294 290 291 295 291 290 291 294
245 239 243 243 236 257 278 242 239 242 247 241 234 242 245 210 236 228 235 248 250 233 212 204 209 226 262 266 268 249 278 276 288 290 294 290 286 288 289 284 287 290 291
260 254 254 256 248 232 215 236 251 256 241 232 241 248 244 250 217 212 243 255 170 154 148 163 165 160 163 184 217 246 257 278 264 266 284 281 278 285 285 286 291 300 307
17 12 19 353 285 276 283 289 288 252 257 293 234 224 236 236 183 156 148 162 159 144 139 149 152 152 175 179 186 240 269 278 261 262 276 285 281 279 283 299 307 308 307
Height
796 796 795 794 793 792 792 791 790 790 792 792 796 796 794 793 789 794 800 805 796 805 805 805 813 817 821 815 818 822 827 837 831 839 850 855 866 866 864 865 865 866 867
796 796 795 795 795 795 794 795 794 795 794 795 797 796 796 797 798 799 802 804 801 805 810 808 813 813 823 826 819 824 820 832 830 845 848 857 865 865 867 866 864 864 866
797 797 797 797 797 797 797 798 799 799 799 799 799 798 801 802 804 807 806 809 804 806 811 813 811 813 824 828 826 831 827 827 837 843 853 857 860 865 865 864 864 863 864
797 798 799 799 799 800 800 800 800 802 802 801 801 803 804 805 808 811 812 810 810 812 816 815 816 816 826 824 833 836 834 836 842 847 854 855 859 860 860 860 860 858 860
798 798 799 801 802 802 802 803 802 803 804 804 805 806 808 809 810 812 812 814 816 819 820 820 823 827 831 838 841 843 846 841 844 848 852 853 853 853 855 856 854 854 855
799 801 801 801 802 803 804 805 804 803 805 806 807 808 810 810 812 814 815 818 821 825 823 823 827 832 834 838 841 843 844 842 844 847 847 848 849 849 850 852 850 851 852
799 800 800 802 802 802 803 805 803 804 804 805 806 807 808 810 812 814 816 819 822 825 823 826 829 834 837 837 840 841 839 840 842 843 844 844 846 848 849 849 848 851 850
799 800 800 803 803 803 803 804 801 802 803 803 805 806 808 810 813 815 817 820 822 824 825 828 829 834 836 837 838 839 839 840 843 842 843 845 847 846 847 848 848 848 847
798 799 799 801 801 802 803 803 803 803 804 804 804 807 808 811 814 817 818 821 824 826 827 829 829 832 833 835 836 838 840 840 840 840 842 842 842 842 843 845 845 842 837
797 796 798 797 800 801 801 802 803 805 805 805 807 809 811 812 814 817 820 821 823 824 825 826 829 830 832 834 835 836 836 836 836 835 836 836 836 837 839 840 841 838 834
794 795 796 797 799 799 800 801 803 804 805 806 808 809 811 812 814 817 819 820 820 822 823 823 825 827 829 830 830 832 833 833 832 832 832 832 832 832 831 830 829 831 829
791 793 795 796 798 798 798 799 800 800 801 803 804 806 809 810 812 813 815 816 817 818 819 819 821 823 823 825 826 827 828 828 829 828 826 825 824 823 823 823 822 820 820
788 790 792 794 795 796 797 796 797 798 798 800 801 803 805 807 809 810 811 813 814 816 817 818 817 817 820 821 820 821 823 825 825 822 819 818 817 817 816 816 817 816 814
783 786 788 791 792 793 794 795 796 797 798 799 800 801 803 804 804 805 807 809 811 813 814 815 815 816 816 817 817 818 818 819 819 816 815 813 812 812 813 812 810 807 803
778 782 784 786 787 788 789 789 789 790 791 794 794 795 797 797 797 799 802 805 806 807 809 809 810 811 811 812 812 812 812 814 814 814 812 811 811 810 807 804 802 800 797
774 774 774 776 779 778 781 782 784 785 787 789 789 790 792 793 793 795 799 801 802 802 805 804 803 803 803 803 803 804 806 806 806 805 806 805 804 801 798 797 796 794 791
770 770 771 771 771 772 774 778 780 781 783 784 785 787 789 791 792 794 796 797 799 800 801 800 799 798 797 797 797 797 797 796 797 797 798 797 794 793 791 790 789 788 784
762 764 766 766 764 766 768 771 774 774 775 776 777 779 782 785 788 790 792 794 796 796 797 796 795 793 792 791 791 791 790 790 790 789 788 787 788 789 788 787 785 783 780
756 757 758 760 759 760 761 764 764 763 766 766 767 771 775 778 781 784 788 790 789 788 789 791 790 789 787 786 786 785 784 783 783 783 783 784 784 784 784 784 782 780 777
751 752 752 751 752 753 753 753 755 755 755 757 757 761 765 771 774 776 778 781 782 781 779 777 777 777 777 777 777 777 777 779 779 780 782 783 783 783 782 781 778 778 774
740 743 748 749 745 745 746 747 747 747 747 748 750 750 752 759 764 766 766 769 771 771 770 770 770 770 770 770 771 772 773 775 777 778 781 782 782 780 780 777 776 772 769
732 733 736 740 741 739 740 741 742 742 744 742 743 743 744 749 751 752 753 755 757 758 759 761 762 763 765 767 768 771 774 775 777 779 779 779 778 777 776 774 771 768 764
725 727 731 732 732 732 731 732 734 736 737 737 736 736 740 740 742 745 747 747 750 752 753 756 760 763 765 767 771 773 775 776 777 777 776 775 775 774 772 770 767 764 760
718 718 721 721 720 726 723 723 724 724 724 725 727 728 729 733 738 737 742 744 747 747 749 754 759 763 766 769 771 773 775 775 775 774 774 774 772 770 768 767 764 760 756
717 715 716 716 713 715 720 722 716 714 715 717 719 721 721 724 725 729 739 743 744 746 751 756 759 762 765 767 769 769 769 770 770 770 771 770 769 768 766 763 760 756 753
712 713 709 710 711 712 710 710 706 704 707 709 705 710 716 718 724 729 734 745 749 751 752 757 760 762 764 765 766 766 767 768 767 767 768 768 766 764 761 758 757 755 752